Content
SEND FEEDBACK

Daily
Averages
Monthly
Summary
United States of America

NEW YORK - CENTRAL PARK, NEW YORK


Home > North America > United States > New York
Elevation: 14 feet     Latitude: 40 47N     Longitude: 073 58W

WEATHER
 
SELECT A DAY
Number of Records: 148,218;   Date Range: 11/1/95 - 8/30/14
 
SHARE

PRINT THIS DATA

[ ← Previous Day ]
WEATHER ALMANAC - JULY 4, 2014
[ Next Day → ]
[ °C ]   °F
Weather ElementAverageHighLow
Temperature70.1 °F73.9 °F (11:51 am)66 °F (3:22 pm)
Dewpoint64.4 °F69.8 °F (5:46 am)50 °F (11:51 pm)
Humidity82.9 %94 % (5:46 am)53 % (8:51 pm)
Barometer29.97 in30.01 in (2:33 am)29.91 in (4:51 pm)
Wind Speed4.3 mph10.4 mph (12:06 pm)
Wind Gust21.9 mph (3:51 pm)
Weather ElementAverage
Visibility6.3 mi
Wind DirectionNNE (36 °)

Weather ElementTotal
Precipitation0.19 in
Cooling Degree Days5 (Base 65)
Growing Degree Days20 (Base 50)
Averaged from 42 records on July 4, 2014
WEATHER CONDITIONS BREAKOUT
WIND DIRECTION BREAKOUT
WEATHER BY HOUR - JULY 4, 2014
[ °C ]   °F
Local TimeTemperatureDewpointHumidityBarometerVisibilityWind DirectionWind SpeedGust SpeedPrecipitationEventsConditions
1:51 AM70.0 °F68.0 °F93 %29.97 in3.0 miVariable3.5 mphClear
2:33 AM71.1 °F69.1 °F93 %30.01 in2.5 miVariable3.5 mphMostly Cloudy
2:42 AM71.1 °F69.1 °F93 %30.01 in5.0 miWNW (290°)3.5 mphOvercast
2:51 AM71.1 °F69.1 °F93 %29.97 in4.0 miCalmMostly Cloudy
3:03 AM71.1 °F69.1 °F93 %30.00 in4.0 miVariable3.5 mphScattered Clouds
3:27 AM71.1 °F69.1 °F93 %30.00 in2.5 miCalmMostly Cloudy
3:34 AM71.1 °F69.1 °F93 %30.00 in3.0 miCalmMostly Cloudy
3:51 AM71.1 °F69.1 °F93 %29.97 in4.0 miCalmOvercast
4:06 AM71.1 °F69.1 °F93 %30.00 in3.0 miCalmOvercast
4:16 AM71.1 °F69.1 °F93 %30.00 in2.5 miCalmOvercast
4:27 AM71.1 °F69.1 °F93 %30.00 in3.0 miCalmOvercast
4:51 AM71.1 °F69.1 °F93 %29.98 in3.0 miCalmOvercast
5:01 AM71.1 °F69.1 °F93 %30.01 in2.5 miVariable3.5 mphOvercast
5:16 AM71.1 °F69.1 °F93 %30.01 in3.0 miCalmOvercast
5:26 AM71.1 °F69.1 °F93 %30.00 in2.0 miCalmOvercast
5:46 AM71.6 °F69.8 °F94 %30.01 in3.0 miCalmOvercast
5:51 AM71.1 °F69.1 °F93 %29.98 in3.0 miCalmOvercast
6:09 AM71.1 °F68.0 °F90 %30.00 in4.0 miVariable4.6 mphOvercast
6:51 AM71.1 °F68.0 °F90 %29.97 in7.0 miVariable3.5 mphPartly Cloudy
7:51 AM71.1 °F68.0 °F90 %29.98 in9.0 miVariable6.9 mphMostly Cloudy
8:51 AM70.0 °F64.0 °F81 %29.99 in10.0 miVariable5.8 mphOvercast
9:51 AM71.1 °F63.0 °F75 %29.97 in10.0 miVariable4.6 mphScattered Clouds
10:51 AM73.0 °F63.0 °F71 %29.96 in10.0 miVariable6.9 mphClear
11:51 AM73.9 °F63.0 °F68 %29.96 in10.0 miENE (60°)8.1 mph20.7 mphMostly Cloudy
12:06 PM73.0 °F63.0 °F71 %29.97 in10.0 miNE (50°)10.4 mph19.6 mphMostly Cloudy
12:31 PM73.0 °F63.0 °F71 %29.97 in10.0 miNE (50°)9.2 mphOvercast
12:51 PM72.0 °F61.0 °F68 %29.95 in10.0 miNE (40°)8.1 mph18.4 mphOvercast
1:51 PM66.9 °F63.0 °F87 %29.93 in7.0 miNorth (360°)9.2 mph0.04 inRainLight Rain
2:35 PM68.0 °F64.0 °F87 %29.95 in2.5 miVariable6.9 mph0.02 inRainLight Rain
2:51 PM66.9 °F64.0 °F90 %29.92 in2.0 miVariable4.6 mph18.4 mph0.05 inRainLight Rain
3:22 PM66.0 °F63.0 °F90 %29.95 in4.0 miVariable5.8 mph0.03 inRainLight Rain
3:51 PM66.9 °F63.0 °F87 %29.93 in7.0 miNE (50°)8.1 mph21.9 mph0.03 inRainLight Rain
4:07 PM66.0 °F62.1 °F87 %29.95 in8.0 miNorth (10°)8.1 mph17.3 mph0.00 inOvercast
4:51 PM66.0 °F63.0 °F90 %29.91 in9.0 miVariable5.8 mph0.02 inOvercast
5:00 PM66.0 °F62.1 °F87 %29.93 in10.0 miNorthOvercast
5:51 PM69.1 °F63.0 °F81 %29.91 in10.0 miCalmMostly Cloudy
6:51 PM70.0 °F59.0 °F68 %29.91 in10.0 miNorthOvercast
7:51 PM71.1 °F54.0 °F55 %29.93 in10.0 miVariable5.8 mphOvercast
8:51 PM70.0 °F52.0 °F53 %29.95 in10.0 miVariable6.9 mph19.6 mphScattered Clouds
9:51 PM69.1 °F52.0 °F54 %29.98 in10.0 miWNW (300°)8.1 mphClear
10:51 PM68.0 °F52.0 °F56 %29.99 in10.0 miWNW (300°)9.2 mph19.6 mphClear
11:51 PM66.9 °F50.0 °F54 %30.01 in10.0 miVariable6.9 mph21.9 mphClear
Hourly data recorded from KNYC, located miles away from New York - Central Park, New York







STORIES FROM OUR PARTNERS